This demonstration page uses our WeatherBlox Daily Observations layout. Learn more.

Left ArrowRight Arrow

Hourly Observations for April 12, 2017

Temp ( °F °C ) Dew Point ( °F °C ) Humidity (%) Winds ( mph kmh ) Pressure ( in mb ) Visibility ( mi km ) Precip ( " mm )
12:53 am 00:53 Clear 36 2.2 27 -2.8 70 70 ENE 7 11 30.09 1019 10 16 0.00 0.00
1:53 am 01:53 Clear 36 2.2 28 -2.2 73 73 E 9 15 30.10 1019 10 16 0.00 0.00
2:53 am 02:53 Clear 36 2.2 27 -2.8 70 70 E 10 17 30.08 1019 10 16 0.00 0.00
3:53 am 03:53 Mostly Cloudy 36 2.2 27 -2.8 70 70 E 12 19 30.08 1019 10 16 0.00 0.00
4:53 am 04:53 Clear 35 1.7 27 -2.8 72 72 ENE 9 15 30.09 1019 10 16 0.00 0.00
5:53 am 05:53 Mostly Cloudy 36 2.2 27 -2.8 70 70 E 3 6 30.09 1019 10 16 0.00 0.00
6:53 am 06:53 Cloudy 35 1.7 28 -2.2 76 76 ENE 14 22 30.10 1019 10 16 0.00 0.00
7:53 am 07:53 Cloudy 37 2.8 29 -1.7 73 73 ENE 12 19 30.11 1020 10 16 0.00 0.00
8:53 am 08:53 Cloudy 41 5 31 -0.6 67 67 ENE 8 13 30.12 1020 10 16 0.00 0.00
9:53 am 09:53 Cloudy 46 7.8 33 0.6 61 61 E 14 22 30.13 1020 10 16 0.00 0.00
10:53 am 10:53 Cloudy 51 10.6 34 1.1 52 52 E 7 11 30.14 1021 10 16 0.00 0.00
11:53 am 11:53 Cloudy 53 11.7 31 -0.6 43 43 ESE 12 19 30.13 1020 10 16 0.00 0.00
12:53 pm 12:53 Cloudy 52 11.1 33 0.6 49 49 ESE 17 28 30.13 1020 10 16 0.00 0.00
1:53 pm 13:53 Cloudy 54 12.2 35 1.7 49 49 ESE 20 31 30.11 1020 10 16 0.00 0.00
2:53 pm 14:53 Mostly Sunny 56 13.3 35 1.7 46 46 ESE 18 30 30.09 1019 10 16 0.00 0.00
3:53 pm 15:53 Partly Cloudy 56 13.3 35 1.7 46 46 SE 18 30 30.07 1018 10 16 0.00 0.00
4:53 pm 16:53 Sunny 57 13.9 36 2.2 45 45 ESE 15 24 30.06 1018 10 16 0.00 0.00
5:53 pm 17:53 Mostly Sunny 55 12.8 36 2.2 49 49 E 18 30 30.06 1018 10 16 0.00 0.00
6:53 pm 18:53 Mostly Sunny 54 12.2 37 2.8 53 53 ESE 13 20 30.06 1018 10 16 0.00 0.00
7:53 pm 19:53 Partly Cloudy 52 11.1 37 2.8 57 57 E 12 19 30.05 1018 10 16 0.00 0.00
8:53 pm 20:53 Mostly Cloudy 50 10 37 2.8 61 61 E 12 19 30.05 1018 10 16 0.00 0.00
9:53 pm 21:53 Cloudy 48 8.9 37 2.8 66 66 E 13 20 30.04 1017 10 16 0.00 0.00
10:53 pm 22:53 Cloudy 48 8.9 38 3.3 68 68 E 13 20 30.01 1016 10 16 0.00 0.00
11:53 pm 23:53 Cloudy 48 8.9 38 3.3 68 68 ENE 13 20 29.99 1016 10 16 0.00 0.00

Powered by AerisWeather